TimeEST,TemperatureF,Dew PointF,Humidity,Sea Level PressureIn,VisibilityMPH,Wind Direction,Wind SpeedMPH,Gust SpeedMPH,PrecipitationIn,Events,Conditions,WindDirDegrees,DateUTC
12:53 AM,48.0,39.0,71,30.13,10.0,East,4.6,-,N/A,,Clear,100,2014-03-06 05:53:00
1:53 AM,46.9,39.0,74,30.14,10.0,East,5.8,-,N/A,,Clear,80,2014-03-06 06:53:00
2:53 AM,44.1,37.9,79,30.12,10.0,ENE,9.2,-,N/A,,Clear,70,2014-03-06 07:53:00
3:53 AM,43.0,37.9,82,30.11,10.0,ENE,9.2,-,N/A,,Clear,60,2014-03-06 08:53:00
4:53 AM,43.0,32.0,65,30.11,10.0,ENE,10.4,-,N/A,,Clear,70,2014-03-06 09:53:00
5:53 AM,43.0,28.0,56,30.12,10.0,East,11.5,21.9,N/A,,Overcast,80,2014-03-06 10:53:00
6:53 AM,42.1,26.1,53,30.15,10.0,ENE,12.7,19.6,N/A,,Overcast,70,2014-03-06 11:53:00
7:53 AM,41.0,24.1,51,30.14,10.0,ENE,17.3,25.3,N/A,,Overcast,60,2014-03-06 12:53:00
8:53 AM,41.0,21.9,47,30.17,10.0,East,13.8,21.9,N/A,,Overcast,80,2014-03-06 13:53:00
9:53 AM,42.1,16.0,35,30.16,10.0,ENE,20.7,32.2,N/A,,Overcast,70,2014-03-06 14:53:00
10:53 AM,43.0,15.1,32,30.13,10.0,ENE,16.1,26.5,N/A,,Overcast,60,2014-03-06 15:53:00
11:53 AM,43.0,14.0,31,30.11,10.0,East,17.3,23.0,N/A,,Overcast,80,2014-03-06 16:53:00
12:53 PM,43.0,16.0,34,30.07,10.0,ENE,15.0,24.2,N/A,,Overcast,60,2014-03-06 17:53:00
1:53 PM,44.1,17.1,34,30.05,10.0,ENE,15.0,24.2,N/A,,Overcast,60,2014-03-06 18:53:00
2:53 PM,43.0,25.0,49,30.06,10.0,ENE,10.4,17.3,0.00,Rain,Light Rain,60,2014-03-06 19:53:00
3:53 PM,39.9,28.0,63,30.07,10.0,NE,10.4,-,0.00,Rain,Light Rain,50,2014-03-06 20:53:00
4:53 PM,39.0,32.0,76,30.05,10.0,NE,10.4,-,0.02,Rain,Light Rain,50,2014-03-06 21:53:00
5:30 PM,37.4,30.2,75,30.03,10.0,NE,13.8,-,0.00,Rain,Light Rain,50,2014-03-06 22:30:00
5:53 PM,37.9,30.9,76,30.03,10.0,NE,15.0,-,0.00,,Overcast,40,2014-03-06 22:53:00
6:53 PM,37.9,32.0,79,30.01,10.0,NE,16.1,-,N/A,,Overcast,50,2014-03-06 23:53:00
7:39 PM,37.4,33.8,87,30.00,8.0,ENE,9.2,-,0.00,Rain,Light Rain,70,2014-03-07 00:39:00
7:53 PM,37.9,34.0,86,30.01,3.0,ENE,10.4,18.4,0.01,Rain,Light Rain,60,2014-03-07 00:53:00
8:22 PM,37.4,35.6,93,30.00,3.0,ENE,5.8,-,0.03,Rain,Light Rain,60,2014-03-07 01:22:00
8:53 PM,37.0,35.1,93,30.01,2.5,ENE,5.8,-,0.07,Rain,Rain,60,2014-03-07 01:53:00
9:01 PM,37.4,35.6,93,30.00,3.0,NE,4.6,-,0.02,Rain,Rain,50,2014-03-07 02:01:00
9:53 PM,37.0,36.0,96,30.01,3.0,NNE,5.8,-,0.07,Rain,Light Rain,30,2014-03-07 02:53:00
10:53 PM,37.9,36.0,93,30.01,5.0,NE,8.1,-,0.01,Rain,Light Rain,50,2014-03-07 03:53:00
11:53 PM,37.9,36.0,93,29.99,3.0,NE,6.9,-,0.03,Rain,Light Rain,50,2014-03-07 04:53:00